Lid_Strength_Index
4 4 4 4 4 4 4 4 4 4 4 4 3 4 4 4 4 1 -0 -2 1 6 4 3 3 5 5 5 8 6 6 7 9 13 13 13 14 11 11 9 11 13 15 15 15 17 18 6 6 12 8 6 6 6
5 5 5 5 4 4 4 4 4 4 4 4 4 4 4 4 4 3 2 -1 -1 3 3 1 1 1 1 2 4 4 6 6 6 10 11 11 13 13 13 15 8 13 10 12 11 11 6 5 6 5 4 6 5 6
5 5 5 5 5 5 4 4 4 4 4 4 4 4 4 4 4 4 1 0 2 10 6 4 4 1 -0 0 -0 6 5 4 5 3 7 10 13 9 14 13 12 9 7 10 10 8 7 6 5 4 4 5 4 4
5 5 5 5 5 5 5 5 5 5 5 5 5 5 5 4 4 4 3 0 2 8 14 8 1 2 0 0 1 1 2 2 3 4 11 13 13 8 11 10 11 9 8 10 10 7 7 6 5 4 4 4 4 4
5 5 5 5 5 5 5 5 5 5 5 5 4 5 5 4 4 4 3 2 1 4 12 10 5 2 1 1 2 1 2 4 5 10 12 11 8 9 9 9 11 8 9 11 12 7 7 6 5 5 5 5 4 5
5 5 5 5 5 5 5 5 5 5 5 5 5 4 4 4 4 4 7 5 2 2 10 13 7 5 3 2 2 3 3 4 5 7 11 8 5 8 12 12 8 6 5 5 8 5 5 5 5 4 5 4 6 6
4 4 4 5 5 5 5 5 5 5 5 5 5 4 4 4 3 6 8 5 3 2 12 12 12 8 8 5 3 4 3 4 5 7 9 8 8 7 11 12 7 5 5 5 4 4 6 5 5 4 5 5 5 5
3 3 4 4 5 5 5 4 4 4 4 4 4 4 3 4 4 6 5 4 3 7 10 13 12 10 7 8 8 4 6 7 7 7 8 8 7 9 12 7 6 5 5 5 5 4 4 4 4 5 5 5 6 6
3 3 4 4 4 4 4 4 4 4 3 3 3 3 3 5 8 7 5 4 4 7 13 13 12 12 6 7 8 7 7 12 6 10 8 7 9 12 8 7 6 5 5 5 4 4 4 5 5 5 5 5 6 6
2 2 3 3 3 3 3 3 3 2 2 3 2 5 9 6 4 4 6 9 10 11 12 12 9 11 6 9 10 10 9 12 12 9 6 10 9 6 5 5 5 5 5 5 6 7 5 6 5 5 5 5 6 7
2 2 3 3 3 3 3 3 3 3 4 2 5 7 4 4 4 7 10 12 10 12 11 10 8 10 7 10 11 9 11 10 13 10 10 11 10 7 6 5 5 5 6 5 5 5 5 5 5 5 5 5 5 6
2 3 3 3 3 3 3 3 3 2 2 3 3 2 3 6 7 10 11 10 11 11 8 9 8 8 7 6 9 9 11 10 13 8 12 12 8 6 6 6 6 5 5 5 5 5 5 5 4 4 4 5 5 6
2 2 2 3 3 3 3 3 3 3 3 2 5 7 7 9 12 13 13 11 11 8 9 9 10 8 8 8 10 10 11 12 8 11 12 9 6 6 6 5 5 5 5 6 5 4 4 4 4 5 5 5 7 6
2 2 2 2 2 2 3 3 3 3 2 7 9 12 10 12 11 9 9 9 8 9 8 7 8 8 8 9 9 11 9 9 12 13 11 7 6 6 5 5 5 5 5 5 5 4 5 6 6 6 7 6 7 7
1 1 1 2 2 2 1 2 2 1 4 8 9 11 11 8 7 8 7 6 6 6 6 7 7 7 9 10 9 9 11 13 11 10 8 5 5 5 5 4 4 4 5 5 4 4 6 6 6 6 6 7 7 7
1 1 2 1 1 1 1 1 1 1 5 7 8 9 8 9 8 9 8 8 5 6 6 6 8 10 10 9 10 11 11 12 9 7 5 4 4 4 4 4 4 4 4 4 3 4 5 6 6 6 6 7 7 7
2 2 2 2 1 1 1 2 3 7 6 8 8 6 6 8 8 7 6 5 4 7 8 8 11 11 8 10 11 9 10 8 6 5 4 4 4 4 3 4 4 4 3 3 3 3 4 5 7 7 8 7 7 7
2 2 1 1 1 2 2 2 5 7 9 7 9 7 7 6 6 6 6 4 6 7 7 9 7 10 11 12 10 7 6 5 4 4 4 3 3 3 3 3 3 3 3 4 4 4 6 7 8 8 7 6 7 7
1 1 1 1 1 2 5 5 4 9 8 7 7 7 5 5 4 4 4 4 4 4 5 7 9 10 9 7 7 6 5 5 5 4 3 3 3 3 3 3 3 3 3 4 5 6 6 7 7 6 6 6 6 5
1 1 1 1 1 4 7 6 3 7 9 7 6 6 6 6 4 6 6 6 5 7 9 9 9 7 6 5 4 4 4 3 4 5 5 4 3 3 3 3 3 3 5 6 6 7 6 7 7 6 5 5 5 5
2 1 1 1 2 2 5 7 7 7 6 7 5 5 6 5 6 6 6 4 6 7 8 6 5 4 3 3 2 3 3 3 4 4 4 5 3 3 3 3 3 5 6 6 6 6 6 6 5 5 6 6 6 6
1 1 2 2 5 5 5 4 5 4 6 6 7 6 6 7 7 6 4 7 7 5 4 4 4 3 3 4 3 2 2 2 2 3 3 3 4 4 4 3 5 5 6 6 5 6 5 5 5 6 6 6 6 6
2 2 4 5 6 6 7 3 7 6 8 8 6 8 8 7 6 4 7 6 6 3 3 3 3 2 3 2 3 3 3 3 3 3 3 3 3 3 4 4 4 6 6 4 4 4 5 6 6 6 6 6 7 7
2 5 5 6 6 8 6 7 6 7 7 8 8 10 9 7 5 8 10 7 4 3 3 3 3 3 3 3 4 3 3 2 3 3 3 4 5 5 4 4 4 3 3 3 4 5 6 6 6 6 7 7 7 7
7 7 6 8 6 8 10 9 8 8 10 8 9 9 8 6 9 9 9 6 5 4 4 3 3 3 4 4 3 3 2 3 4 4 4 3 4 5 4 3 3 3 3 5 6 6 6 6 6 6 7 7 7 7
9 7 8 8 7 8 8 10 9 9 8 9 8 6 6 7 10 10 8 5 5 4 5 5 5 4 4 3 4 3 3 2 4 6 5 4 4 5 5 5 5 5 4 5 5 6 6 6 6 7 7 7 7 7
9 8 6 4 5 6 7 6 6 7 9 9 8 8 9 11 11 8 4 3 3 2 2 2 2 3 3 3 2 2 3 4 5 6 4 3 3 3 3 4 5 3 3 4 5 5 6 6 6 6 6 6 6 6
7 5 8 7 7 5 8 8 8 9 8 6 7 9 10 10 9 5 3 2 2 2 2 1 1 2 2 3 3 3 4 4 5 5 5 4 4 3 4 4 4 6 4 4 5 5 5 5 5 5 6 7 6 6
7 5 5 8 7 7 7 8 8 6 5 6 8 8 7 5 3 3 2 2 3 3 4 3 3 3 3 4 4 4 4 5 6 7 7 6 5 5 4 5 5 5 5 5 6 5 5 5 5 5 6 6 6 7
7 5 7 7 9 9 7 5 6 5 4 4 4 5 5 4 3 3 4 5 5 5 4 5 5 6 6 6 5 4 4 5 5 6 7 6 5 4 5 5 5 5 5 5 6 7 8 7 8 8 8 8 8 8
4 5 7 7 8 6 5 5 5 5 5 5 4 6 6 5 4 5 6 6 7 6 7 6 6 5 6 6 6 6 6 5 5 5 6 5 5 5 5 5 5 5 5 6 7 7 7 7 7 8 8 9 9 9
7 7 8 9 8 6 6 7 6 6 6 6 7 6 6 7 8 7 9 8 8 7 8 8 8 7 6 6 6 6 6 6 6 5 5 5 5 5 5 5 5 5 5 6 6 7 7 7 8 8 9 9 9 9
8 7 7 8 8 8 7 7 7 8 8 8 8 7 7 8 8 10 9 9 9 10 10 9 8 7 7 8 7 7 8 8 9 9 9 9 7 6 5 5 5 6 6 6 7 7 8 8 8 8 9 9 10 10